This is the latest recevied weather packets stored in our database for station/object SHLBYV-WX. If no packets are shown the sender has not sent any weather packets the latest 10 day(s).
| Time | Temp. | Humidity | Pressure | Rain* | Wind** | Luminosity | Snow |
|---|---|---|---|---|---|---|---|
| 1777129274 | 12.22° C | 82% | 983.4 hPa | 0 mm | - | - | - |
| 1777128350 | 11.67° C | 84% | 983 hPa | 0 mm | - | - | - |
| 1777127466 | 11.11° C | 83% | 983.7 hPa | 0 mm | - | - | - |
| 1777126550 | 10.56° C | 83% | 983.7 hPa | 0 mm | - | - | - |
| 1777125680 | 10.56° C | 83% | 983.7 hPa | 0 mm | - | - | - |
| 1777124750 | 10° C | 93% | 983 hPa | 0 mm | - | - | - |
| 1777123865 | 10° C | 93% | 983 hPa | 0 mm | - | - | - |
| 1777122950 | 8.89° C | 93% | 983 hPa | 0 mm | - | - | - |
| 1777122070 | 8.89° C | 93% | 983 hPa | 0 mm | - | - | - |
| 1777121148 | 8.89° C | 95% | 982.1 hPa | 0 mm | - | - | - |
| 1777120265 | 8.89° C | 93% | 982.6 hPa | 0 mm | - | - | - |
| 1777119348 | 8.89° C | 93% | 982.7 hPa | 0 mm | - | - | - |
| 1777118478 | 8.89° C | 93% | 982.7 hPa | 0 mm | - | - | - |
| 1777117549 | 8.89° C | 93% | 981.6 hPa | 0 mm | - | - | - |
| 1777116667 | 8.89° C | 92% | 982.2 hPa | 0 mm | - | - | - |
| 1777115754 | 9.44° C | 92% | 982.2 hPa | 0 mm | - | - | - |
| 1777114875 | 9.44° C | 92% | 982.2 hPa | 0 mm | - | - | - |
| 1777113067 | 9.44° C | 94% | 981.6 hPa | 0 mm | - | - | - |
| 1777112153 | 9.44° C | 94% | 981.6 hPa | 0 mm | - | - | - |
| 1777111272 | 9.44° C | 92% | 981.4 hPa | 0 mm | - | - | - |
| 1777110353 | 9.44° C | 91% | 980.5 hPa | 0 mm | - | - | - |
| 1777109465 | 10° C | 91% | 980.5 hPa | 0 mm | - | - | - |
| 1777108550 | 10° C | 91% | 980.4 hPa | 0 mm | - | - | - |
| 1777107671 | 10° C | 91% | 980.4 hPa | 0 mm | - | - | - |
| 1777106754 | 10° C | 94% | 980 hPa | 0 mm | - | - | - |
* Rain latest hour (hover to see other rain measurements)
** Current wind speed in m/s (hover to see current wind gust speed)